カタログに戻る

BREEZE-M DEB

TANK

運用中HEO
NORAD 33437·DEBRIS·🇷🇺 Russia

打ち上げ Nov 5, 2008 から Baikonur Cosmodrome

Loading…

次のパス (今後24時間)

TLE

最新Source: Space-Track

元期: Sep 14, 2026, 05:39 UTC

1 33437U 08057B   26257.23556987  .00003418  00000-0  77964-3 0  9999
2 33437  49.5202 196.5320 4896962  45.1620 345.5299  5.76396375364856

AllMySatでBREEZE-M DEBをリアルタイム追跡

Download on the App Store